Wind_Speed
36 40 41 38 39 36 30 24 23 14 2 19 18 30 27 34 36 39 4 18 22 18 15 11 12 14 15 14 13 11 9 9 8 9 11 12 12 12 13 12 12 11 11 10 7 5 4 4 5
39 41 44 44 44 39 30 26 25 12 19 25 25 23 28 34 37 38 22 19 17 17 19 16 15 15 16 17 16 15 14 12 11 10 11 12 12 13 14 13 13 12 11 10 8 7 6 7 8
42 44 46 48 46 42 32 27 30 15 20 36 31 25 24 38 40 34 24 23 14 13 16 18 16 16 17 18 18 17 16 15 14 12 11 12 12 13 13 12 12 11 10 10 10 9 9 9 9
44 47 47 52 50 38 35 28 31 32 14 20 36 35 33 39 36 34 28 22 26 23 19 19 17 17 17 17 19 18 16 14 13 13 13 13 14 13 13 12 11 10 11 11 11 12 11 11 12
44 47 50 51 46 42 37 30 34 36 19 20 37 34 38 38 37 35 30 27 28 24 24 22 20 19 19 18 17 17 17 16 13 13 13 14 13 13 14 12 12 11 12 14 13 12 13 14 15
45 47 50 50 45 38 39 34 38 44 32 25 27 40 42 42 39 42 40 35 34 32 29 25 24 25 22 18 18 16 16 15 15 14 15 15 14 13 14 15 15 16 17 15 15 15 17 18 19
44 45 46 45 45 42 36 37 42 47 47 34 28 35 39 47 46 45 40 36 34 37 31 29 28 29 28 27 26 25 23 23 21 19 18 18 19 19 20 18 19 19 19 20 20 19 19 20 21
41 45 47 47 45 44 38 41 48 46 57 35 34 40 46 47 47 45 40 43 34 36 37 31 32 33 33 30 30 30 27 24 24 22 20 19 20 21 23 24 24 25 24 25 24 23 23 22 22
42 46 50 45 43 41 37 36 35 42 41 49 48 45 45 48 53 49 28 36 28 32 42 39 35 36 38 38 36 34 31 28 25 26 25 24 27 25 25 26 28 30 32 32 30 28 27 26 25
44 44 42 38 40 40 41 42 34 25 38 36 40 37 50 55 56 55 52 49 42 37 27 40 38 40 43 44 41 39 37 35 32 30 30 32 33 32 31 30 32 32 33 35 34 34 32 31 30
46 37 38 39 40 38 38 42 46 37 37 41 45 46 45 46 49 50 48 42 41 45 38 45 44 45 46 46 46 44 41 38 34 35 35 36 38 36 36 38 37 35 34 36 34 33 34 34 33
49 44 43 41 43 43 42 43 49 50 49 52 52 54 43 47 46 47 51 42 45 49 44 45 48 54 52 48 46 46 44 43 41 39 40 40 41 42 41 40 39 39 40 40 38 36 35 36 38
47 48 48 47 45 44 44 48 48 48 53 55 52 37 40 42 48 49 50 37 46 42 31 45 42 61 63 51 56 51 44 42 40 39 40 40 43 45 44 43 42 42 43 42 40 39 38 38 40
43 46 47 51 49 47 49 49 48 43 44 48 45 40 44 42 44 46 45 42 40 40 43 44 32 45 36 43 53 52 41 40 39 39 39 40 42 45 46 48 48 47 47 48 46 45 45 46 46
42 46 48 50 51 51 49 54 47 44 43 46 46 43 46 43 44 44 40 40 38 43 44 42 44 41 39 38 18 33 30 41 47 41 37 39 42 49 51 53 52 56 55 54 54 53 52 51 50
44 47 49 47 51 50 53 49 48 46 47 47 47 45 45 44 44 46 44 39 43 41 49 51 50 50 46 44 45 41 45 35 45 38 42 40 37 42 48 45 56 66 59 58 57 57 53 54 54
42 45 44 44 43 46 46 45 44 45 48 48 49 49 48 46 45 46 47 42 47 46 48 52 53 52 51 44 46 45 46 22 41 45 35 36 37 37 53 52 50 20 33 44 34 38 41 27 23
42 38 37 37 34 38 38 42 43 43 45 48 49 49 48 47 45 47 50 45 50 50 51 54 55 56 55 53 46 47 41 38 39 40 56 39 39 45 46 41 37 39 24 43 49 26 32 19 38
35 35 34 31 26 31 37 40 40 43 43 45 45 47 46 45 46 47 50 48 51 53 53 55 57 56 58 55 50 48 44 42 41 40 50 50 52 53 45 52 57 66 61 50 45 40 54 50 49
34 34 35 27 15 21 26 34 30 33 36 39 42 46 47 44 45 47 47 48 50 54 56 57 59 56 54 52 49 46 44 46 45 47 51 50 51 45 52 55 56 60 64 50 45 52 51 52 55
39 38 33 32 16 16 27 28 33 25 20 26 32 39 42 39 39 41 45 44 48 52 54 57 57 58 58 55 51 50 45 36 43 46 51 52 52 59 62 55 61 54 53 54 56 56 62 58 59
40 36 29 29 27 24 32 38 32 11 11 20 26 28 29 31 32 34 36 37 37 39 45 48 51 53 56 44 56 49 43 42 34 48 53 50 58 61 58 61 67 61 63 61 63 62 59 56 50
37 31 32 35 27 31 40 38 24 21 15 21 26 26 27 30 33 33 31 30 30 34 40 42 43 37 38 38 41 43 44 49 47 48 47 54 58 57 62 65 68 66 62 60 50 48 48 48 58
30 29 33 38 30 36 36 35 25 18 15 13 18 19 23 29 29 30 27 26 30 27 27 23 21 23 24 22 23 28 32 34 38 41 47 43 47 50 49 48 44 46 39 42 44 43 44 46 47
32 34 30 34 45 46 41 39 35 19 13 20 29 25 19 23 25 24 21 22 14 14 15 13 18 18 18 21 22 25 29 31 35 35 20 21 30 34 33 33 32 34 36 37 38 43 45 47 46
38 39 42 41 36 31 31 34 22 28 24 23 21 13 20 19 16 19 20 16 20 15 18 19 18 14 18 21 21 23 26 28 27 27 25 25 27 29 32 35 36 38 43 43 44 46 45 48 49
37 44 38 30 21 20 19 13 17 18 22 24 27 20 21 24 20 21 22 21 20 21 21 19 16 16 19 24 25 26 27 27 28 30 31 32 34 37 39 39 41 42 43 44 44 45 47 50 51
42 33 40 38 35 31 26 20 29 27 34 31 26 24 26 25 28 26 24 23 23 19 21 18 21 24 27 27 27 30 32 33 34 34 37 39 42 44 45 48 47 47 46 47 48 50 50 51 53
42 39 35 34 39 32 21 34 30 36 36 34 32 31 28 34 39 27 28 25 21 20 24 26 27 27 29 31 30 33 35 39 40 41 45 47 49 50 52 51 48 46 48 49 50 52 52 52 53
44 36 36 36 40 32 26 31 36 39 37 41 35 28 33 44 39 33 32 27 28 29 28 28 32 33 34 36 38 40 41 42 44 46 49 52 54 54 54 52 48 48 49 51 53 54 55 56 56
Wind_Direction
242 240 239 235 231 226 207 193 175 194 237 265 243 238 240 240 250 247 197 215 248 245 251 254 266 267 260 258 256 247 237 238 249 256 262 269 274 279 282 285 289 290 295 295 290 302 315 323 334
241 244 242 238 233 228 215 199 192 208 285 275 258 251 242 246 244 239 244 241 252 253 258 257 258 265 268 265 257 252 243 237 238 246 261 268 271 274 276 282 286 290 293 290 287 294 306 315 325
239 242 244 242 237 230 219 214 192 203 267 254 254 244 249 254 250 245 238 236 236 245 251 256 254 260 260 268 263 259 257 253 249 249 255 261 266 267 270 275 279 285 288 286 282 286 298 309 318
231 237 242 243 241 233 229 220 221 212 245 262 258 260 251 259 253 251 245 238 245 254 254 255 250 254 260 267 263 262 258 256 256 258 260 262 264 267 270 273 273 273 276 275 282 291 296 304 311
234 233 238 247 246 239 228 224 219 214 233 251 244 253 253 252 254 254 252 239 247 253 253 252 248 247 252 256 252 259 261 256 253 255 260 263 264 265 265 268 269 267 268 277 283 290 297 301 306
240 236 236 241 246 245 237 221 221 231 220 238 222 241 250 254 250 242 241 235 238 244 250 248 248 243 243 244 242 244 249 254 257 260 264 266 269 265 264 262 264 268 271 274 279 286 294 298 304
243 242 240 238 238 237 233 225 211 228 234 233 231 244 249 253 257 252 248 249 250 241 241 251 248 249 245 243 246 255 263 264 263 267 269 268 271 273 275 273 274 277 278 280 283 286 290 295 299
243 242 242 239 236 234 227 228 218 222 230 227 227 237 247 251 255 258 265 255 253 258 253 241 248 247 250 256 260 264 264 265 266 265 267 263 265 270 274 279 281 281 284 285 283 284 286 289 293
241 240 241 243 243 240 231 236 241 223 225 237 236 235 241 252 257 255 255 257 248 257 253 253 245 250 253 255 259 264 267 270 273 274 271 267 273 275 277 281 283 283 282 280 283 283 284 285 288
241 243 243 244 242 238 233 230 228 230 242 238 249 240 243 244 248 256 256 260 268 265 276 239 248 249 252 255 258 261 264 268 271 271 273 274 280 281 281 284 286 287 288 286 284 282 285 286 290
239 242 241 239 239 237 233 227 223 213 227 234 240 245 251 252 255 259 258 264 259 257 225 230 243 244 245 248 250 253 256 259 261 265 268 270 277 278 279 283 281 275 277 280 279 278 281 285 287
241 239 239 236 238 235 228 227 223 219 219 237 235 244 240 254 252 254 258 257 268 269 231 233 251 257 249 240 242 247 249 251 257 263 269 272 274 277 279 281 282 282 282 285 281 280 282 287 287
240 239 239 239 237 238 239 238 233 232 234 241 254 256 252 248 260 261 263 261 267 264 252 249 249 262 249 240 248 235 240 248 252 258 264 269 274 277 279 280 279 277 278 278 280 282 282 282 284
240 238 238 240 238 239 239 240 242 240 240 246 249 246 250 249 250 258 266 270 268 263 263 254 271 251 280 275 250 219 222 239 249 253 258 263 268 272 274 272 273 273 273 275 277 278 278 279 282
238 240 237 237 239 236 242 241 240 240 242 244 247 243 250 252 253 254 254 259 259 265 269 262 267 262 286 262 209 213 249 260 257 252 256 259 264 267 269 271 271 266 267 268 271 271 273 275 275
238 235 238 237 239 239 237 241 244 247 242 241 245 247 245 251 252 255 254 249 254 250 257 260 261 261 266 271 251 264 283 276 252 250 252 253 266 277 274 284 272 267 262 262 261 260 267 266 273
237 241 238 238 244 245 244 243 244 247 247 244 245 245 246 245 250 253 256 251 253 253 255 260 264 266 269 269 267 268 279 263 271 272 243 244 264 265 280 286 271 239 277 261 261 265 262 254 238
236 243 244 243 241 250 248 241 241 241 244 244 245 245 246 247 245 249 254 251 254 255 255 257 262 265 266 268 268 272 273 271 282 259 255 241 271 271 265 277 270 247 289 304 303 275 235 250 283
239 236 240 242 239 239 241 241 243 239 243 245 247 249 248 245 248 248 247 251 254 258 259 261 262 263 267 268 268 264 267 261 264 263 280 283 279 280 266 284 275 268 278 294 295 278 291 294 285
232 232 233 217 170 240 252 248 253 255 242 245 245 247 249 248 250 250 250 248 250 257 262 265 267 268 269 267 269 269 264 263 260 269 268 285 284 281 279 284 281 284 280 297 292 290 283 292 286
225 225 222 224 193 220 239 235 246 255 247 243 238 242 248 248 248 251 251 251 251 254 258 263 267 269 270 272 269 266 261 261 264 254 258 266 266 271 272 272 275 285 284 290 289 290 293 287 285
225 220 214 191 196 204 225 230 240 214 228 243 252 248 253 253 253 251 254 252 250 252 256 262 268 271 273 277 273 283 278 279 262 253 259 264 269 271 271 273 277 282 280 285 286 290 284 285 277
223 214 197 188 205 206 205 231 236 202 225 237 242 248 251 254 257 257 261 263 261 252 253 258 265 277 285 277 282 281 278 277 274 272 267 262 269 272 273 279 282 281 284 287 281 277 275 274 278
220 203 195 195 206 213 207 221 203 199 218 233 250 259 253 252 253 254 255 258 251 248 248 247 255 265 269 272 285 286 285 290 290 287 273 273 270 272 277 270 273 280 282 277 275 274 275 274 277
205 181 201 213 212 220 217 228 240 216 237 236 225 240 254 246 253 256 257 247 228 230 244 261 263 266 281 293 287 286 283 278 285 295 281 262 259 264 268 266 264 269 273 273 274 271 276 282 286
192 192 202 205 210 222 226 228 242 215 220 258 241 232 249 255 271 273 261 250 233 242 257 252 255 265 275 277 280 277 278 281 284 280 281 281 282 278 273 280 280 278 276 280 280 283 286 284 284
196 205 201 207 208 222 213 206 191 194 236 245 258 206 233 264 263 266 271 269 238 241 239 239 246 255 261 264 263 266 269 273 280 283 283 282 283 286 287 285 284 284 282 283 283 284 283 283 286
205 206 202 202 207 209 206 201 216 215 225 228 198 221 237 264 263 264 263 259 256 242 238 249 247 246 255 261 265 269 275 276 275 275 277 279 282 285 286 287 287 286 286 288 288 286 286 288 288
193 192 203 205 212 221 201 208 207 211 217 230 214 214 235 257 257 242 253 260 250 242 239 244 255 262 268 271 273 275 276 278 280 282 283 284 284 284 286 287 287 286 285 286 286 290 293 291 290
188 199 187 202 206 220 210 216 228 214 230 217 218 218 242 243 236 240 250 251 245 251 256 261 265 268 271 273 274 274 273 272 273 275 278 280 281 281 281 279 280 281 283 286 288 291 290 289 288
Height
5876 5877 5876 5880 5883 5885 5892 5900 5902 5901 5900 5899 5904 5906 5907 5908 5907 5906 5917 5913 5913 5916 5918 5916 5919 5921 5921 5921 5922 5922 5922 5923 5923 5924 5925 5925 5925 5926 5926 5926 5925 5924 5925 5924 5924 5924 5923 5922 5921
5869 5870 5871 5871 5875 5882 5891 5896 5899 5902 5895 5897 5900 5903 5903 5897 5901 5904 5915 5914 5913 5914 5916 5916 5917 5919 5920 5920 5920 5920 5920 5921 5922 5922 5923 5924 5924 5924 5924 5924 5924 5923 5923 5923 5922 5922 5922 5921 5920
5861 5863 5865 5865 5869 5877 5890 5894 5894 5887 5890 5890 5893 5898 5897 5891 5896 5905 5915 5910 5909 5910 5912 5914 5915 5917 5918 5920 5919 5919 5920 5920 5921 5921 5921 5922 5922 5923 5923 5922 5922 5922 5922 5921 5920 5920 5919 5919 5918
5851 5854 5856 5856 5863 5878 5885 5891 5892 5884 5888 5884 5889 5892 5896 5887 5891 5899 5905 5906 5905 5907 5909 5911 5912 5915 5916 5918 5918 5919 5919 5919 5919 5920 5920 5920 5920 5921 5921 5920 5920 5920 5920 5919 5919 5918 5918 5917 5916
5842 5845 5848 5850 5858 5870 5878 5886 5885 5882 5881 5886 5885 5885 5884 5887 5890 5890 5897 5901 5900 5903 5906 5909 5910 5912 5914 5915 5916 5917 5917 5917 5916 5917 5918 5918 5919 5919 5919 5919 5918 5918 5917 5917 5916 5917 5916 5914 5913
5834 5836 5839 5844 5853 5863 5870 5880 5880 5877 5874 5877 5878 5881 5879 5879 5881 5879 5884 5891 5894 5898 5902 5905 5906 5909 5910 5912 5912 5912 5912 5914 5915 5915 5916 5916 5916 5915 5916 5916 5916 5916 5915 5914 5914 5913 5913 5912 5911
5828 5829 5833 5839 5845 5852 5863 5868 5869 5873 5871 5871 5877 5877 5876 5871 5875 5876 5883 5891 5898 5894 5897 5900 5903 5905 5905 5906 5908 5910 5911 5912 5912 5913 5913 5914 5914 5914 5914 5914 5914 5914 5913 5912 5912 5911 5909 5908 5907
5821 5820 5824 5829 5836 5844 5852 5854 5852 5860 5863 5864 5869 5871 5870 5868 5868 5873 5878 5880 5892 5896 5898 5895 5898 5899 5899 5902 5903 5906 5907 5908 5909 5909 5910 5911 5910 5911 5911 5911 5911 5911 5911 5910 5909 5908 5906 5905 5903
5810 5812 5818 5825 5831 5839 5844 5845 5852 5849 5851 5859 5861 5866 5865 5863 5861 5869 5865 5873 5884 5891 5892 5894 5890 5891 5892 5893 5895 5898 5901 5904 5906 5907 5908 5908 5908 5908 5907 5907 5906 5906 5906 5905 5905 5904 5902 5901 5900
5802 5806 5815 5822 5823 5827 5834 5837 5840 5843 5845 5847 5851 5861 5856 5855 5855 5861 5866 5874 5882 5884 5884 5886 5885 5883 5884 5886 5888 5892 5895 5898 5900 5901 5903 5903 5903 5904 5904 5903 5902 5901 5900 5899 5899 5898 5897 5895 5895
5796 5803 5807 5810 5814 5818 5824 5828 5830 5834 5836 5838 5845 5852 5849 5851 5852 5856 5860 5869 5867 5865 5869 5869 5868 5868 5870 5877 5881 5884 5887 5888 5890 5892 5895 5897 5898 5899 5898 5898 5897 5895 5894 5893 5893 5892 5892 5892 5890
5788 5794 5796 5801 5804 5807 5811 5815 5820 5823 5827 5825 5829 5837 5845 5842 5846 5848 5851 5861 5858 5856 5861 5864 5859 5856 5860 5866 5871 5875 5877 5879 5883 5887 5890 5892 5893 5894 5893 5892 5892 5891 5890 5889 5889 5888 5887 5887 5885
5781 5785 5787 5791 5795 5800 5803 5806 5811 5819 5820 5821 5824 5834 5838 5840 5838 5842 5843 5853 5848 5839 5819 5855 5852 5848 5848 5856 5860 5859 5867 5874 5876 5879 5882 5885 5887 5887 5888 5886 5885 5884 5882 5881 5881 5881 5880 5879 5877
5771 5773 5778 5781 5787 5791 5793 5797 5802 5813 5815 5816 5820 5827 5827 5833 5836 5837 5841 5839 5838 5839 5842 5846 5827 5833 5822 5853 5837 5842 5853 5865 5868 5871 5873 5876 5877 5878 5877 5874 5873 5874 5873 5872 5872 5871 5869 5868 5867
5761 5763 5765 5772 5777 5782 5783 5785 5795 5802 5806 5808 5811 5818 5820 5825 5828 5830 5836 5837 5835 5829 5829 5834 5841 5839 5835 5842 5825 5844 5859 5862 5865 5865 5866 5865 5866 5865 5864 5864 5862 5858 5857 5859 5858 5857 5857 5857 5859
5750 5751 5755 5764 5765 5772 5772 5782 5787 5791 5796 5800 5803 5808 5814 5817 5820 5821 5825 5830 5828 5832 5827 5830 5833 5834 5838 5840 5847 5845 5851 5855 5857 5857 5852 5853 5851 5855 5853 5850 5845 5840 5840 5839 5839 5839 5844 5845 5848
5739 5742 5746 5752 5758 5760 5765 5776 5779 5781 5785 5790 5793 5799 5804 5810 5812 5814 5816 5822 5818 5821 5821 5818 5820 5824 5829 5837 5843 5841 5843 5846 5849 5842 5802 5838 5840 5833 5845 5842 5837 5815 5844 5836 5802 5826 5822 5831 5825
5730 5737 5742 5746 5754 5753 5758 5763 5767 5771 5775 5779 5783 5789 5794 5800 5805 5805 5805 5813 5810 5812 5813 5813 5813 5815 5821 5826 5832 5834 5836 5838 5834 5830 5835 5837 5838 5839 5842 5837 5833 5832 5835 5833 5830 5821 5818 5827 5828
5726 5729 5735 5739 5745 5745 5748 5752 5757 5763 5767 5770 5776 5779 5785 5791 5792 5794 5797 5804 5802 5801 5802 5803 5804 5806 5807 5815 5822 5827 5829 5830 5829 5827 5825 5827 5827 5830 5832 5829 5828 5826 5827 5826 5818 5824 5820 5823 5828
5717 5721 5726 5731 5737 5741 5744 5746 5749 5752 5758 5762 5767 5771 5776 5780 5782 5784 5788 5792 5797 5794 5791 5792 5793 5794 5797 5803 5809 5812 5816 5820 5820 5819 5820 5817 5818 5818 5818 5822 5819 5819 5818 5816 5818 5815 5816 5816 5814
5707 5711 5718 5726 5730 5735 5740 5741 5743 5749 5753 5755 5759 5763 5766 5772 5772 5774 5776 5784 5787 5786 5786 5784 5784 5783 5784 5788 5794 5799 5801 5807 5810 5810 5810 5810 5811 5810 5810 5810 5811 5805 5802 5805 5806 5806 5803 5803 5803
5698 5706 5713 5719 5723 5727 5735 5735 5737 5746 5748 5750 5752 5756 5759 5762 5764 5766 5767 5772 5778 5778 5776 5775 5773 5773 5774 5777 5776 5778 5783 5787 5794 5796 5796 5798 5797 5793 5793 5792 5792 5793 5793 5793 5793 5792 5792 5791 5792
5693 5701 5709 5714 5716 5722 5725 5729 5735 5739 5739 5743 5746 5751 5752 5754 5755 5757 5758 5762 5767 5770 5769 5768 5768 5766 5765 5766 5765 5767 5770 5773 5776 5781 5783 5784 5785 5785 5786 5781 5779 5779 5779 5780 5781 5781 5780 5778 5780
5690 5696 5702 5708 5711 5712 5718 5722 5730 5732 5734 5737 5740 5743 5745 5746 5749 5750 5753 5754 5757 5758 5762 5764 5763 5764 5765 5765 5766 5765 5767 5768 5770 5772 5774 5773 5774 5776 5777 5773 5771 5770 5771 5771 5769 5768 5766 5764 5762
5681 5687 5693 5698 5701 5703 5712 5717 5722 5729 5732 5732 5734 5737 5738 5738 5743 5745 5748 5750 5751 5753 5756 5758 5759 5759 5759 5759 5761 5762 5763 5767 5767 5766 5765 5763 5763 5766 5767 5767 5766 5765 5763 5761 5760 5761 5756 5754 5753
5672 5679 5683 5687 5693 5702 5710 5711 5720 5726 5728 5730 5731 5732 5733 5736 5739 5741 5743 5748 5749 5752 5755 5756 5757 5757 5757 5757 5757 5758 5758 5758 5760 5761 5759 5758 5759 5759 5760 5758 5757 5756 5754 5749 5747 5745 5743 5744 5740
5667 5670 5683 5689 5695 5699 5704 5711 5714 5719 5723 5727 5725 5728 5729 5733 5736 5738 5740 5744 5748 5750 5752 5752 5753 5754 5754 5753 5754 5754 5754 5754 5753 5753 5754 5753 5752 5750 5749 5747 5745 5743 5740 5739 5736 5733 5730 5728 5725
5658 5671 5677 5681 5687 5690 5698 5703 5707 5711 5713 5717 5720 5719 5725 5727 5729 5733 5736 5738 5742 5745 5746 5747 5748 5748 5748 5749 5749 5748 5748 5748 5747 5745 5744 5743 5741 5739 5737 5736 5734 5730 5729 5726 5723 5722 5716 5712 5710
5651 5660 5669 5679 5682 5686 5694 5696 5701 5703 5705 5714 5717 5716 5719 5721 5719 5725 5728 5730 5735 5738 5740 5740 5741 5742 5742 5742 5744 5742 5741 5740 5738 5736 5735 5733 5732 5731 5728 5724 5720 5717 5715 5714 5712 5706 5700 5697 5694
5642 5654 5662 5669 5677 5681 5689 5691 5692 5695 5700 5703 5708 5712 5708 5703 5706 5721 5725 5725 5724 5727 5730 5733 5733 5734 5736 5735 5734 5734 5733 5731 5729 5728 5726 5723 5722 5719 5716 5714 5711 5709 5707 5703 5698 5692 5687 5684 5682